Flag for Germany Weather past 2 weeks in Backnang, Baden-Württemberg, Germany

Now
56 °F

Overcast.


Feels Like: 56 °F
Forecast: 41 / 59 °F
Wind: 5 mph from Northwest

Location: Oehringen

Current Time: May 26, 2015 at 6:53:13 PM

Latest Report: May 26, 2015 at 6:00 PM


Visibility: 19 mi

Pressure: 30.11 "Hg

Humidity: 58%

Dew point: 42 °F

Location of BacknangLocation

Historic Weather in Backnang — Graph

°F

Backnang temperature yesterday

Maximum temperature yesterday: 68 °F (at 12:00 PM)
Minimum temperature yesterday: 52 °F (at 8:00 PM)
Average temperature yesterday: 59 °F

Past Weeks' High & Low Weather Summary

 TemperatureHumidityPressure
High83 °F (May 12, 3:00 PM)99% (May 26, 2:00 AM)30.37 "Hg (May 26, 2:00 AM)
Low38 °F (May 22, 6:00 AM)28% (May 15, 7:00 PM)29.71 "Hg (May 18, 9:00 PM)
Average59 °F65%30.05 "Hg
* Reported May 11 5:00 PM — May 26 5:00 PM, Backnang, Weather by CustomWeather, © 2015

Note: Actual official high and low records may vary slightly from our data, if they occured in-between our weather recording intervals... More about our weather records

Advertising

Backnang weather history for previous 24 hours

 ConditionsComfort  
Time TempWeatherWind HumidityBarometerVisibility
5:00 PM
Tue, May 26
57 °FOvercast.5 mph61%30.10 "Hg17 mi
4:00 PM55 °FOvercast.2 mph62%30.09 "Hg14 mi
3:00 PM55 °FDrizzle. Overcast.6 mph65%30.09 "Hg13 mi
2:00 PM56 °FOvercast.3 mph66%30.08 "Hg17 mi
1:00 PM56 °FOvercast.3 mph66%30.07 "Hg16 mi
12:00 PM56 °FOvercast.3 mph73%30.06 "Hg13 mi
11:00 AM53 °FOvercast.5 mph86%30.06 "Hg6 mi
10:00 AM56 °FScattered clouds.3 mph73%30.04 "Hg11 mi
9:00 AM54 °FOvercast.1 mph81%30.03 "Hg8 mi
8:00 AM52 °FOvercast.2 mph89%30.02 "Hg6 mi
7:00 AM51 °FOvercast.1 mph92%30.01 "Hg6 mi
5:00 AM51 °FOvercast.2 mph95%29.98 "Hg2 mi
4:00 AM52 °FLight rain. Overcast.1 mph91%29.96 "Hg5 mi
3:00 AM52 °FOvercast.1 mph94%29.96 "Hg3 mi
2:00 AM53 °FLow clouds.2 mph99%29.96 "Hg1 mi
1:00 AM53 °FLow clouds.2 mph98%29.96 "Hg1 mi
12:00 AM53 °FOvercast.2 mph97%29.96 "Hg2 mi
11:00 PM
Mon, May 25
53 °FOvercast.No wind97%29.96 "Hg3 mi
10:00 PM52 °FOvercast.1 mph96%29.96 "Hg5 mi
9:00 PM53 °FDrizzle. Overcast.1 mph97%29.95 "Hg3 mi
8:00 PM52 °FLight freezing rain. Overcast.1 mph97%29.95 "Hg5 mi
7:00 PM57 °FOvercast.1 mph90%29.92 "Hg7 mi
6:00 PM59 °FLight rain. Overcast.3 mph85%29.90 "Hg6 mi
Weather by CustomWeather, © 2015

See weather overviewHow to use our weather pages